Regional Weather Roundup
Issued by NWS State College, PA

Home | Current Version | Previous Version | Text Only | Print | Product List | Glossary On
Versions: 1 2 3 4 5 6 7 8 9 10 11 12 13 14 15 16 17 18 19 20 21 22 23 24 25 26 27 28 29 30 31 32 33 34 35 36 37 38 39 40 41 42 43 44 45 46 47 48 49 50
000
ASUS41 KCTP 261303
RWRCTP

REGIONAL WEATHER ROUNDUP
NATIONAL WEATHER SERVICE STATE COLLEGE PA
900 AM EDT SUN APR 26 2015

Note: "fair" indicates few or no clouds below 12,000 feet with no
significant weather and/or obstructions to visibility.

* = STATION THAT DOES NOT REPORT PRECIPITATION /E.G. RAIN...SNOW...ETC/
    THUNDER OR FOG.

PAZ002>004-007>009-013>016-020>023-029>032-261400-
WESTERN PENNSYLVANIA

CITY           SKY/WX    TMP DP  RH WIND       PRES   REMARKS
ERIE           SUNNY     42  31  64 NE7       29.85R
MEADVILLE      SUNNY     44  26  49 NE6       29.81R
FRANKLIN*      SUNNY     43  25  49 E6        29.82R
NEW CASTLE     FAIR      44  29  56 NE13      29.82R
BEAVER COUNTY  SUNNY     43  28  56 N9        29.78
BUTLER*        SUNNY     43  27  52 E13       29.80R
PITTSBURGH INT MOSUNNY   46  27  47 NE9       29.76R
PITTSBURGH     SUNNY     46  23  40 VRB5      29.75R
INDIANA*       SUNNY     43  27  52 E7        29.80R
LATROBE        SUNNY     45  30  57 NE9       29.77R
WASHINGTON CO* SUNNY     46  28  49 NE10      29.77R
$$

PAZ004>006-010>012-017>019-024>028-033>037-041-042-045-046-049>053-261400-
CENTRAL PENNSYLVANIA

CITY           SKY/WX    TMP DP  RH WIND       PRES   REMARKS
BRADFORD       SUNNY     42  23  46 NE5       29.77R
DUBOIS         SUNNY     44  26  49 NE12      29.77R
CLEARFIELD     SUNNY     43  27  53 NE9       29.77R
JOHNSTOWN      SUNNY     40  25  55 NE8       29.72R
ALTOONA        SUNNY     44  27  51 NE9       29.75R
STATE COLLEGE  SUNNY     41  27  56 NE8       29.76R
WILLIAMSPORT   SUNNY     44  28  53 SW5       29.77R
SELINSGROVE    SUNNY     46  30  53 VRB6      29.77R
FT INDIANTOWN  SUNNY     48  28  45 E7        29.73R
CAPITAL CITY   SUNNY     49  27  42 N7        29.74R
HARRISBURG     MOSUNNY   50  30  46 N7        29.72R
YORK           SUNNY     49  31  49 N9        29.72R
$$

PAZ038>040-043-044-047-048-054-055-060>062-067>071-261400-
EASTERN PENNSYLVANIA

CITY           SKY/WX    TMP DP  RH WIND       PRES   REMARKS
SCRANTON       SUNNY     42  27  55 CALM      29.73S
MOUNT POCONO   SUNNY     44  27  51 NE7       29.69S
ALLENTOWN      SUNNY     50  31  48 NE12      29.72R
QUAKERTOWN*    MOSUNNY   48  32  53 NE6       29.72R
READING        SUNNY     48  29  47 NE10      29.71S
LANCASTER      SUNNY     48  31  51 NE8       29.71R
COATESVILLE    MOSUNNY   48  30  49 NE9       29.70S
POTTSTOWN      MOSUNNY   49  30  48 N8        29.72R
BLUE BELL      MOSUNNY   52  32  46 NE5       29.70R
DOYLESTOWN     MOSUNNY   48  29  47 NE8       29.70R
WILLOW GROVE   NOT AVBL
NORTH PHILA    MOSUNNY   51  30  44 NE9       29.71S
PHILADELPHIA   PTSUNNY   52  31  44 NE14G20   29.70R
$$



USA.gov is the U.S. government's official web portal to all federal, state and local government web resources and services.